COSMOS 1275 DEB, 42226

Orbit data source: Space-Track

COSMOS 1275 DEB, 42226 is space debris in LEO originally from a launch on Thu, 04 Jun 1981 UTC launched from the Plesetsk Missile And Space Complex (PKMTR). Debris objects in space refer to the collection of defunct objects orbiting the Earth. Examples of debris include non-operational satellites, rocket bodies, and fragments generated from explosions, collisions, or faulty payload assembly.

Loading next visibility...
Identifier
42226, 1981-053US
Orbit
LEO
Country
Flag of CISCIS
Related business
Manufacturer
Unknown
Mission
Spacecraft
Bus & Motor
Unknown
Mass
Unknown
Launch date (UTC)
1981-06-04 (45 years ago)
Launch vehicle
Unknown
Launch site
Plesetsk Missile And Space Complex (PKMTR)
Object type
Payload
Rocket body
Debris
Shape & HBR
Unknown shape, 0.1 m
Radar Cross Section
Small (<0.1 m²)

Expand to show TLE details & history
Last TLE update: 2 weeks ago

TLE from 2 weeks ago
0 COSMOS 1275 DEB
1 42226U 81053US  26159.41147855  .00000728  00000-0  79114-3 0  9993
2 42226  82.9542 211.3081 0109403 206.4365 153.1183 13.69064273626183
Epoch: 2026-06-08T09:52Z
TLE epoch observation values (Epoch: 2026-06-08T09:52:31.746Z)
Latitude
-0.00002°
Longitude
166.37711°
Altitude
1,078.041 km
Speed
7.277 km/s
True Right ascension
14h 05m 13s
True Declination
0° 00' 00"
Sunlit
Object was in full shadow at epoch
Visualization orbit readout
Latitude
Unknown
Longitude
Unknown
Altitude
Unknown
Speed
Unknown
Apparent Right ascension
Unknown
Apparent Declination
Unknown
Sunlit
N/A
Visualization observer readout
Local Sidereal Time
21:34:28
Azimuth
Unknown
Elevation
Unknown
Doppler factor
Unknown
Orbital elements
Apogee altitude
1,080.808 km
Perigee altitude
919.368 km
Semi-major axis
7,378.225 km
Eccentricity
0.01094
Inclination
82.9542°
RAAN
211.3081°
Arg. of periapsis
206.4365°
True anomaly
153.6783°
Mean anomaly
153.1183°
Eccentric anomaly
153.39898°
Mean motion
3.42464 °/min
Orbital period
105.12 mins
BSTAR
0.00079114
Loading maneuver chart data...
Computing Atmospheric mass density...

Documentation

Showing up to 5 results
|